Date String (YYYY-MM-DD hh:mm:ss) UTC,Instrument flags,Ambient pressure (hPa),Sample flow (lpm),Bypass flow (lpm),Sample temperature (°C),Ambient temperature (°C),ASC tube jacket temperature (°C),LED temperature (°C),Box temperature (°C),Sample RH (%),Span deviation,Mass concentration (μg/m³),Mass concentration (μg/m³),Mass concentration (μg/m³)
DateTimeUTC,F1_M11,P_M11,Q1_M11,Q2_M11,T1_M11,T2_M11,T3_M11,T4_M11,T5_M11,U1_M11,ZSPAN_M11,X0_M11,X2_M11,X1_M11
2022-04-04 02:00:00,,0823.7,5.00,0.00,25.8,25.1,00.0,34.7,27.7,11.0,0000.0,0020.53,0007.16,0004.74
2022-04-04 02:01:00,,0823.8,5.01,0.00,25.8,25.2,00.0,34.7,27.7,11.0,0000.0,0020.81,0007.14,0004.77
2022-04-04 02:02:00,,0823.7,5.01,0.00,25.8,25.2,00.0,34.7,27.7,11.0,0000.0,0019.87,0007.20,0004.83
2022-04-04 02:03:00,,0823.8,5.00,0.00,25.8,25.2,00.0,34.7,27.7,11.0,0000.1,0020.21,0007.28,0004.88
2022-04-04 02:04:00,,0823.8,5.00,0.00,25.9,25.2,00.0,34.7,27.7,11.0,-000.0,0019.35,0007.24,0004.89
2022-04-04 02:05:00,,0823.8,4.99,0.00,25.9,25.2,00.0,34.7,27.8,11.0,0000.0,0019.12,0007.23,0004.92
2022-04-04 02:06:00,,0823.8,5.00,0.00,25.9,25.2,00.0,34.7,27.8,11.0,0000.1,0021.13,0007.32,0004.95
2022-04-04 02:07:00,,0823.8,5.01,0.00,25.9,25.2,00.0,34.7,27.8,11.0,0000.0,0022.45,0007.39,0004.98
2022-04-04 02:08:00,,0823.7,5.00,0.00,25.9,25.2,00.0,34.7,27.8,11.1,0000.0,0021.75,0007.38,0005.01
2022-04-04 02:09:00,,0823.8,4.98,0.00,25.9,25.2,00.0,34.8,27.8,11.1,0000.0,0022.04,0007.37,0005.03
2022-04-04 02:10:00,,0823.8,5.00,0.00,25.9,25.2,00.0,34.8,27.8,11.1,0000.0,0021.49,0007.29,0005.05
2022-04-04 02:11:00,,0823.8,5.00,0.00,25.9,25.2,00.0,34.8,27.8,11.1,0000.0,0022.18,0007.18,0005.05
2022-04-04 02:12:00,,0823.8,5.01,0.00,25.9,25.2,00.0,34.8,27.8,11.1,0000.0,0021.92,0007.20,0005.05
2022-04-04 02:13:00,,0823.8,5.00,0.00,26.0,25.2,00.0,34.8,27.9,11.2,0000.0,0022.36,0007.20,0005.04
2022-04-04 02:14:00,,0823.8,5.01,0.00,26.0,25.2,00.0,34.8,27.9,11.2,0000.0,0022.28,0007.17,0005.02
2022-04-04 02:15:00,,0823.7,4.99,0.00,26.0,25.2,00.0,34.8,27.9,11.2,0000.0,0022.61,0007.19,0005.02
2022-04-04 02:16:00,,0823.7,4.99,0.00,26.0,25.2,00.0,34.8,27.9,11.2,0000.0,0022.01,0007.18,0005.01
2022-04-04 02:17:00,,0823.8,5.00,0.00,26.0,25.3,00.0,34.8,27.9,11.1,0000.0,0020.47,0007.19,0005.00
2022-04-04 02:18:00,,0823.8,4.99,0.00,26.0,25.3,00.0,34.8,27.9,11.1,0000.0,0019.71,0007.19,0004.99
2022-04-04 02:19:00,,0823.8,5.00,0.00,26.0,25.3,00.0,34.8,27.9,11.0,-000.0,0019.98,0007.15,0004.97
2022-04-04 02:20:00,,0823.8,5.00,0.00,26.0,25.2,00.0,34.9,27.9,11.1,0000.0,0019.69,0007.19,0004.99
2022-04-04 02:21:00,,0823.7,5.00,0.00,26.0,25.2,00.0,34.9,27.9,11.1,0000.0,0019.11,0007.29,0005.02
2022-04-04 02:22:00,,0823.8,5.00,0.00,26.0,25.2,00.0,34.9,27.9,11.1,0000.0,0018.43,0007.31,0005.02
2022-04-04 02:23:00,,0823.8,5.00,0.00,26.0,25.2,00.0,34.9,27.9,11.1,0000.0,0020.29,0007.33,0005.03
2022-04-04 02:24:00,,0823.8,5.00,0.00,26.0,25.2,00.0,34.9,27.9,11.1,0000.0,0021.11,0007.37,0005.03
2022-04-04 02:25:00,,0823.8,5.00,0.00,26.0,25.2,00.0,34.9,27.8,11.1,0000.0,0021.23,0007.40,0005.04
2022-04-04 02:26:00,,0823.8,5.00,0.00,26.0,25.2,00.0,34.9,27.9,11.1,0000.0,0020.53,0007.34,0005.05
2022-04-04 02:27:00,,0823.9,5.00,0.00,26.0,25.2,00.0,34.9,27.9,11.1,0000.0,0020.67,0007.32,0005.07
2022-04-04 02:28:00,,0823.8,5.00,0.00,26.0,25.2,00.0,34.9,27.9,11.1,0000.0,0021.18,0007.28,0005.07
2022-04-04 02:29:00,,0823.8,4.98,0.00,26.0,25.2,00.0,34.9,27.9,11.1,0000.0,0021.13,0007.31,0005.08
2022-04-04 02:30:00,,0823.8,5.00,0.00,26.0,25.2,00.0,34.9,27.9,11.2,0000.0,0020.87,0007.31,0005.07
2022-04-04 02:31:00,,0823.8,5.00,0.00,26.0,25.2,00.0,34.9,27.9,11.3,0000.0,0020.85,0007.29,0005.06
2022-04-04 02:32:00,,0823.8,5.00,0.00,26.0,25.2,00.0,34.9,27.9,11.3,0000.0,0021.16,0007.24,0005.04
2022-04-04 02:33:00,,0823.8,4.99,0.00,26.0,25.2,00.0,34.9,27.9,11.3,0000.0,0020.97,0007.22,0005.03
2022-04-04 02:34:00,,0823.8,5.00,0.00,26.0,25.2,00.0,34.9,27.8,11.3,0000.0,0019.53,0007.21,0005.02
2022-04-04 02:35:00,,0823.8,5.01,0.00,26.0,25.2,00.0,34.9,27.8,11.3,0000.0,0018.05,0007.12,0005.01
2022-04-04 02:36:00,,0823.8,5.01,0.00,26.0,25.2,00.0,34.9,27.8,11.3,0000.4,0018.33,0007.10,0005.01
2022-04-04 02:37:00,,0823.8,5.00,0.00,26.0,25.2,00.0,34.9,27.8,11.3,0000.0,0019.11,0007.18,0005.01
2022-04-04 02:38:00,,0823.8,5.00,0.00,26.0,25.2,00.0,34.9,27.8,11.3,0000.0,0018.77,0007.17,0004.99
2022-04-04 02:39:00,,0823.8,5.00,0.00,26.0,25.2,00.0,34.9,27.8,11.3,0001.0,0018.62,0007.17,0004.98
2022-04-04 02:40:00,,0823.8,5.01,0.00,26.0,25.2,00.0,34.9,27.8,11.4,0000.0,0018.58,0007.22,0004.98
2022-04-04 02:41:00,,0823.8,5.01,0.00,26.0,25.2,00.0,34.9,27.8,11.4,0000.0,0018.71,0007.30,0005.00
2022-04-04 02:42:00,,0823.8,5.00,0.00,26.0,25.2,00.0,34.9,27.8,11.5,0000.0,0019.26,0007.32,0005.00
2022-04-04 02:43:00,,0823.8,4.99,0.00,26.0,25.2,00.0,34.9,27.8,11.5,0000.0,0019.61,0007.30,0005.01
2022-04-04 02:44:00,,0823.8,5.00,0.00,26.0,25.2,00.0,34.9,27.8,11.5,0001.5,0021.11,0007.27,0005.01
2022-04-04 02:45:00,,0823.8,4.99,0.00,26.0,25.2,00.0,34.9,27.8,11.6,0001.2,0021.74,0007.33,0005.01
2022-04-04 02:46:00,,0823.9,5.00,0.00,26.0,25.2,00.0,34.9,27.8,11.6,0001.0,0021.82,0007.38,0005.03
2022-04-04 02:47:00,,0823.8,5.00,0.00,26.0,25.2,00.0,34.9,27.8,11.7,0000.0,0021.54,0007.42,0005.02
2022-04-04 02:48:00,,0823.8,5.00,0.00,26.0,25.2,00.0,34.9,27.8,11.7,0000.0,0021.16,0007.39,0005.02
2022-04-04 02:49:00,,0823.8,5.01,0.00,25.9,25.2,00.0,34.9,27.7,11.6,0000.0,0021.84,0007.41,0005.03
2022-04-04 02:50:00,,0823.8,5.00,0.00,25.9,25.1,00.0,34.9,27.7,11.7,0000.0,0021.79,0007.36,0005.03
2022-04-04 02:51:00,,0823.7,5.00,0.00,25.9,25.1,00.0,34.9,27.7,11.8,0000.0,0021.79,0007.28,0005.02
2022-04-04 02:52:00,,0823.8,5.00,0.00,25.9,25.1,00.0,34.9,27.7,11.9,0000.0,0021.92,0007.17,0005.01
2022-04-04 02:53:00,,0823.8,4.99,0.00,25.9,25.1,00.0,34.9,27.7,11.9,0000.1,0021.83,0007.12,0005.00
2022-04-04 02:54:00,,0823.8,5.01,0.00,25.9,25.1,00.0,34.9,27.7,11.9,0000.0,0021.03,0007.13,0004.99
2022-04-04 02:55:00,,0823.8,5.00,0.00,25.9,25.1,00.0,34.9,27.7,12.0,0000.0,0019.98,0007.16,0004.99
2022-04-04 02:56:00,,0823.8,5.00,0.00,25.9,25.1,00.0,34.9,27.7,12.1,0000.0,0018.66,0007.08,0004.99
2022-04-04 02:57:00,,0823.8,5.00,0.00,25.9,25.1,00.0,34.9,27.7,12.1,0000.0,0019.30,0007.03,0004.98
2022-04-04 02:58:00,,0823.8,5.00,0.00,25.9,25.1,00.0,34.9,27.7,12.1,0000.0,0019.24,0006.96,0004.99
2022-04-04 02:59:00,,0823.8,5.01,0.00,25.9,25.1,00.0,34.9,27.7,12.1,0000.0,0019.10,0006.97,0004.99
